Regional Weather Roundup
Issued by NWS

Home | Current Version | Previous Version | Graphics & Text | Print | Product List | Glossary On
Versions: 1 2 3 4 5 6 7 8 9 10 11 12 13 14 15 16 17 18 19 20 21 22 23 24 25 26 27 28 29 30 31 32 33 34 35 36 37 38 39 40 41 42 43 44 45 46 47 48 49 50
000
ASUS43 KIND 011559
RWRIN

WEATHER ROUNDUP FOR INDIANA
NATIONAL WEATHER SERVICE INDIANAPOLIS IN
1100 AM EST SUN MAR 01 2015

NOTE: "FAIR" INDICATES FEW OR NO CLOUDS BELOW 12,000 FEET WITH NO
SIGNIFICANT WEATHER AND/OR OBSTRUCTIONS TO VISIBILITY.

* - STATION DOES NOT REPORT WEATHER SUCH AS PRECIPITATION OR FOG.

+ - STATION NOT QUALITY CONTROLLED BY THE NATIONAL WEATHER SERVICE.
    USE DATA WITH CAUTION...ESPECIALLY DEWPOINT AND RELATIVE
    HUMIDITY OBSERVATIONS.

INZ001>003-010>013-019-020-011700-
NORTHWEST INDIANA

CITY           SKY/WX    TMP DP  RH WIND       PRES   REMARKS
GARY /AIRPORT/ LGT SNOW  23  16  74 SW3       30.38R
VALPARAISO     NOT AVBL

$$

LMZ046-743>745-011700-
SOUTHERN LAKE MICHIGAN

STATION/POSITION TIME  TEMP WIND        PRES
                       AIR  DIR/SP/G
                 (UTC) (F)  (DEG/KT/KT) (MB)
MICHIGAN CITY    1500   19  140/  5/  5   N/A

$$

INZ004-005-014>016-021>024-011700-
NORTH CENTRAL INDIANA

CITY           SKY/WX    TMP DP  RH WIND       PRES   REMARKS
GOSHEN         SNOW      19  16  88 CALM      30.35F VSB 1/2
SOUTH BEND     LGT SNOW  20  16  84 S5        30.36F FOG     WCI  13

$$

INZ006>009-017-018-025>027-011700-
NORTHEAST INDIANA

CITY           SKY/WX    TMP DP  RH WIND       PRES   REMARKS
ANGOLA *+      CLOUDY    18   9  68 CALM      30.34S
FORT WAYNE     LGT SNOW  20  17  88 CALM      30.36F VSB 1

$$

INZ028-029-035-036-043>045-051>053-011700-
WEST CENTRAL INDIANA

CITY           SKY/WX    TMP DP  RH WIND       PRES   REMARKS
CRAWFORDSVL +  LGT SNOW  25  20  83 CALM      30.35F VSB 1
GREENCASTLE +  LGT SNOW  28  23  80 CALM      30.35F
LAFAYETTE      LGT SNOW  23  21  92 CALM      30.38R VSB 3/4
TERRE HAUTE    CLOUDY    28  26  92 CALM      30.36F FOG

$$

INZ030>032-037>040-046>048-054>057-064-065-011700-
CENTRAL INDIANA

CITY           SKY/WX    TMP DP  RH WIND       PRES   REMARKS
GREENWOOD *+   CLOUDY    28  25  86 CALM      30.36
INDIANAPOLIS   LGT SNOW  28  25  88 CALM      30.35R FOG
-EAGLE CREEK   LGT SNOW  28  25  88 CALM      30.35R VSB 3/4
KOKOMO *+      PTSUNNY   21  18  86 CALM      30.36S VSB 1
MT COMFORT *+  CLOUDY    28  25  86 CALM      30.35R VSB 1
SHELBYVILLE    CLOUDY    32  28  85 CALM      30.34S FOG

$$

INZ033-034-041-042-049-050-058-059-011700-
EAST CENTRAL INDIANA

CITY           SKY/WX    TMP DP  RH WIND       PRES   REMARKS
MUNCIE         LGT SNOW  28  25  88 NW5       30.33F FOG     WCI  23

$$

INZ060-061-067>069-081>083-085>088-011700-
SOUTHWEST INDIANA

CITY           SKY/WX    TMP DP  RH WIND       PRES   REMARKS
EVANSVILLE     CLOUDY    35  28  75 CALM      30.36F HAZE
HUNTINGBURG *+ CLOUDY    34  28  80 NW5       30.36F WCI  30

$$

INZ062-063-066-070>080-084-089>092-011700-
SOUTH CENTRAL AND SOUTHEAST INDIANA

CITY           SKY/WX    TMP DP  RH WIND       PRES   REMARKS
BLOOMINGTON    CLOUDY    31  29  92 CALM      30.34F FOG
SEYMOUR +      DRIZZLE   34  30  86 CALM      30.35F

$$




USA.gov is the U.S. government's official web portal to all federal, state and local government web resources and services.